�������l�o���
Date,Time,MP-1(��Sv/h),MP-2(��Sv/h),MP-3(��Sv/h),MP-4(��Sv/h),MP-5(��Sv/h),MP-6(��Sv/h),MP-7(��Sv/h),MP-8(��Sv/h),����,����(m/s),���J
2018/12/12,00:00,0.762,1.135,0.805,1.451,1.032,0.444,0.789,0.747,�k��,3.5,��
2018/12/12,00:10,0.758,1.133,0.805,1.453,1.032,0.444,0.787,0.746,�k��,3.3,��
2018/12/12,00:20,0.759,1.134,0.805,1.452,1.033,0.443,0.788,0.747,�k�k��,2.5,�L
2018/12/12,00:30,0.758,1.136,0.804,1.452,1.033,0.444,0.788,0.748,�k��,2.8,�L
2018/12/12,00:40,0.759,1.134,0.804,1.453,1.033,0.444,0.789,0.747,�k��,3.5,�L
2018/12/12,00:50,0.759,1.135,0.805,1.450,1.033,0.444,0.787,0.747,�k��,3.9,�L
2018/12/12,01:00,0.758,1.135,0.804,1.452,1.030,0.444,0.786,0.746,�k��,4.3,�L
2018/12/12,01:10,0.760,1.135,0.804,1.450,1.031,0.444,0.786,0.747,�k��,4.5,�L
2018/12/12,01:20,0.757,1.134,0.802,1.449,1.033,0.445,0.787,0.747,�k��,4.9,�L
2018/12/12,01:30,0.756,1.130,0.802,1.449,1.029,0.445,0.786,0.746,�k��,4.9,�L
2018/12/12,01:40,0.757,1.130,0.802,1.448,1.028,0.446,0.785,0.746,�k��,4.8,�L
2018/12/12,01:50,0.757,1.127,0.801,1.444,1.024,0.445,0.785,0.744,�k��,4.9,�L
2018/12/12,02:00,0.756,1.124,0.801,1.441,1.022,0.447,0.785,0.744,�k��,3.8,�L
2018/12/12,02:10,0.754,1.121,0.802,1.441,1.024,0.445,0.783,0.745,�k��,4.6,�L
2018/12/12,02:20,0.757,1.122,0.800,1.440,1.022,0.446,0.784,0.745,�k��,4.5,�L
2018/12/12,02:30,0.755,1.122,0.800,1.436,1.024,0.446,0.787,0.745,�k��,5.1,�L
2018/12/12,02:40,0.755,1.123,0.800,1.439,1.022,0.447,0.786,0.747,�k�k��,5.7,�L
2018/12/12,02:50,0.753,1.124,0.800,1.437,1.023,0.445,0.785,0.745,�k�k��,5.7,�L
2018/12/12,03:00,0.756,1.122,0.798,1.437,1.023,0.446,0.785,0.746,�k�k��,7.2,�L
2018/12/12,03:10,0.756,1.121,0.800,1.435,1.021,0.446,0.784,0.745,�k��,7.1,�L
2018/12/12,03:20,0.753,1.121,0.796,1.434,1.019,0.445,0.784,0.744,�k��,7.3,�L
2018/12/12,03:30,0.752,1.115,0.797,1.428,1.014,0.444,0.782,0.743,�k�k��,7.8,�L
2018/12/12,03:40,0.751,1.110,0.795,1.422,1.015,0.444,0.782,0.742,�k��,8.2,�L
2018/12/12,03:50,0.752,1.111,0.794,1.423,1.016,0.444,0.781,0.743,�k��,8.2,�L
2018/12/12,04:00,0.750,1.113,0.795,1.423,1.014,0.442,0.784,0.741,�k��,7.8,�L
2018/12/12,04:10,0.752,1.113,0.796,1.420,1.017,0.442,0.783,0.741,�k��,9.5,�L
2018/12/12,04:20,0.753,1.114,0.794,1.423,1.017,0.443,0.783,0.744,�k��,8.6,�L
2018/12/12,04:30,0.751,1.116,0.793,1.423,1.018,0.443,0.783,0.743,�k��,7.5,�L
2018/12/12,04:40,0.753,1.118,0.792,1.423,1.018,0.442,0.782,0.743,�k��,7.3,�L
2018/12/12,04:50,0.750,1.112,0.793,1.418,1.014,0.442,0.782,0.742,�k�k��,8.6,�L
2018/12/12,05:00,0.751,1.113,0.792,1.419,1.011,0.442,0.782,0.740,�k�k��,9.1,�L
2018/12/12,05:10,0.749,1.111,0.794,1.421,1.015,0.443,0.780,0.741,�k�k��,8.9,�L
2018/12/12,05:20,0.749,1.110,0.793,1.419,1.012,0.442,0.781,0.741,�k�k��,8.4,�L
2018/12/12,05:30,0.749,1.111,0.793,1.417,1.012,0.442,0.782,0.743,�k�k��,9.2,�L
2018/12/12,05:40,0.750,1.111,0.793,1.416,1.013,0.443,0.780,0.743,�k�k��,9.5,�L
2018/12/12,05:50,0.751,1.114,0.793,1.418,1.014,0.443,0.780,0.741,�k�k��,9.3,�L
2018/12/12,06:00,0.749,1.112,0.792,1.416,1.013,0.441,0.780,0.742,�k��,8.5,�L
2018/12/12,06:10,0.750,1.110,0.793,1.415,1.011,0.442,0.780,0.741,�k�k��,9.1,�L
2018/12/12,06:20,0.749,1.109,0.789,1.411,1.011,0.443,0.779,0.743,�k�k��,7.8,�L
2018/12/12,06:30,0.749,1.109,0.790,1.410,1.012,0.441,0.782,0.741,�k�k��,8.6,�L
2018/12/12,06:40,0.748,1.110,0.789,1.414,1.011,0.443,0.781,0.741,�k�k��,8.7,�L
2018/12/12,06:50,0.749,1.108,0.791,1.416,1.011,0.442,0.780,0.741,�k�k��,9.2,�L
2018/12/12,07:00,0.749,1.112,0.790,1.413,1.014,0.443,0.781,0.741,�k�k��,10.2,�L
2018/12/12,07:10,0.750,1.112,0.792,1.416,1.012,0.443,0.780,0.741,�k�k��,9.6,�L
2018/12/12,07:20,0.751,1.113,0.790,1.416,1.013,0.443,0.780,0.742,�k�k��,9.0,��
2018/12/12,07:30,0.751,1.112,0.790,1.416,1.014,0.443,0.781,0.742,�k��,8.1,�L
2018/12/12,07:40,0.752,1.112,0.793,1.419,1.013,0.442,0.779,0.741,�k��,9.0,�L
2018/12/12,07:50,0.751,1.112,0.791,1.418,1.013,0.443,0.782,0.743,�k��,8.0,��
2018/12/12,08:00,0.750,1.111,0.790,1.416,1.013,0.443,0.781,0.741,�k��,9.4,�L
2018/12/12,08:10,0.749,1.111,0.791,1.419,1.013,0.441,0.779,0.743,�k��,7.9,��
2018/12/12,08:20,0.749,1.113,0.791,1.419,1.015,0.442,0.781,0.743,�k��,8.0,��
2018/12/12,08:30,0.749,1.111,0.790,1.418,1.013,0.440,0.781,0.742,�k��,8.4,�L
2018/12/12,08:40,0.751,1.112,0.790,1.420,1.014,0.442,0.781,0.742,�k��,6.3,�L
2018/12/12,08:50,0.752,1.116,0.795,1.419,1.016,0.442,0.782,0.743,�k��,6.7,�L
2018/12/12,09:00,0.753,1.112,0.792,1.419,1.015,0.442,0.782,0.744,�k��,6.7,�L
2018/12/12,09:10,0.753,1.112,0.791,1.419,1.017,0.442,0.782,0.745,�k��,6.2,�L
2018/12/12,09:20,0.753,1.113,0.793,1.419,1.015,0.441,0.782,0.743,�k��,6.1,��
2018/12/12,09:30,0.752,1.113,0.793,1.421,1.016,0.441,0.781,0.744,�k��,5.5,�L
2018/12/12,09:40,0.754,1.113,0.792,1.421,1.016,0.443,0.783,0.743,�k��,5.6,�L
2018/12/12,09:50,0.753,1.111,0.793,1.419,1.015,0.443,0.784,0.744,�k��,5.4,�L
2018/12/12,10:00,0.752,1.112,0.791,1.419,1.014,0.445,0.784,0.743,�k��,5.9,�L
2018/12/12,10:10,0.753,1.113,0.796,1.421,1.016,0.443,0.783,0.742,�k�k��,5.0,�L
2018/12/12,10:20,0.753,1.112,0.793,1.420,1.013,0.443,0.784,0.744,�k�k��,4.6,��
2018/12/12,10:30,0.755,1.113,0.794,1.423,1.000,0.443,0.784,0.743,�k�k��,4.0,��
2018/12/12,10:40,0.756,1.113,0.793,1.420,1.000,0.444,0.785,0.743,�k��,3.8,��
2018/12/12,10:50,0.755,1.115,0.794,1.420,1.000,0.443,0.784,0.744,�k�k��,2.9,��
2018/12/12,11:00,0.751,1.115,0.795,1.423,0.995,0.443,0.783,0.744,�k��,3.3,��
2018/12/12,11:10,0.750,1.116,0.795,1.422,1.006,0.442,0.783,0.744,�k�k��,2.6,��
2018/12/12,11:20,0.753,1.116,0.795,1.423,1.005,0.444,0.783,0.745,�k�k��,3.2,��
2018/12/12,11:30,0.756,1.115,0.795,1.423,1.004,0.444,0.783,0.745,�k�k��,2.2,��
2018/12/12,11:40,0.755,1.112,0.794,1.424,1.005,0.444,0.785,0.746,�k�k��,3.6,��
2018/12/12,11:50,0.755,1.119,0.797,1.423,1.006,0.443,0.782,0.744,�k��,2.6,��
2018/12/12,12:00,0.757,1.122,0.797,1.426,1.012,0.444,0.784,0.746,�k�k��,3.9,��
2018/12/12,12:10,0.756,1.121,0.794,1.424,1.011,0.443,0.783,0.744,�k�k��,4.0,��
2018/12/12,12:20,0.757,1.121,0.795,1.425,1.013,0.443,0.783,0.744,�k�k��,4.5,��
2018/12/12,12:30,0.756,1.122,0.796,1.423,1.014,0.444,0.784,0.746,�k�k��,4.4,��
2018/12/12,12:40,0.757,1.119,0.798,1.427,1.013,0.443,0.783,0.745,�k�k��,5.0,��
2018/12/12,12:50,0.757,1.119,0.796,1.425,1.013,0.442,0.781,0.746,�k�k��,4.3,��
2018/12/12,13:00,0.758,1.120,0.797,1.425,1.014,0.444,0.784,0.744,�k�k��,3.9,��
2018/12/12,13:10,0.758,1.123,0.799,1.424,1.015,0.444,0.784,0.747,�k�k��,4.6,��
2018/12/12,13:20,0.760,1.121,0.798,1.425,1.013,0.442,0.784,0.746,�k�k��,4.0,��
2018/12/12,13:30,0.759,1.123,0.796,1.426,1.017,0.443,0.785,0.745,�k�k��,3.5,��
2018/12/12,13:40,0.759,1.123,0.799,1.424,1.015,0.444,0.785,0.743,�k,2.8,��
2018/12/12,13:50,0.760,1.120,0.799,1.428,1.015,0.445,0.786,0.744,�k�k��,3.4,��
2018/12/12,14:00,0.759,1.116,0.800,1.424,1.014,0.443,0.787,0.745,�k��,7.5,��
2018/12/12,14:10,0.760,1.119,0.799,1.428,1.017,0.444,0.785,0.744,�k��,7.3,��
2018/12/12,14:20,0.757,1.120,0.798,1.426,1.018,0.445,0.787,0.744,�k��,4.7,��
2018/12/12,14:30,0.759,1.121,0.799,1.429,1.014,0.443,0.787,0.747,�k�k��,4.1,��
2018/12/12,14:40,0.759,1.122,0.800,1.428,1.017,0.444,0.788,0.748,�k,4.3,��
2018/12/12,14:50,0.756,1.126,0.801,1.427,1.018,0.445,0.786,0.747,�k,3.2,��
2018/12/12,15:00,0.759,1.125,0.802,1.430,1.018,0.445,0.787,0.748,�k�k��,3.1,��
2018/12/12,15:10,0.759,1.125,0.799,1.427,1.016,0.445,0.788,0.748,�k�k��,3.2,��
2018/12/12,15:20,0.761,1.126,0.802,1.432,1.017,0.444,0.786,0.747,�k��,4.5,��
2018/12/12,15:30,0.760,1.126,0.800,1.429,1.019,0.443,0.790,0.746,���k��,3.5,��
2018/12/12,15:40,0.759,1.128,0.799,1.431,1.018,0.445,0.788,0.747,���k��,3.3,��
2018/12/12,15:50,0.759,1.128,0.801,1.429,1.016,0.446,0.791,0.747,�k�k��,4.5,��
2018/12/12,16:00,0.761,1.129,0.801,1.429,1.016,0.445,0.789,0.747,�k�k��,6.7,��
2018/12/12,16:10,0.760,1.127,0.801,1.430,1.016,0.444,0.788,0.746,�k�k��,8.5,��
2018/12/12,16:20,0.760,1.129,0.800,1.431,1.016,0.445,0.788,0.748,�k��,8.7,��
2018/12/12,16:30,0.759,1.127,0.800,1.432,1.016,0.443,0.787,0.745,�k��,8.8,��
2018/12/12,16:40,0.759,1.130,0.799,1.429,1.017,0.443,0.789,0.747,�k��,10.3,��
2018/12/12,16:50,0.760,1.127,0.800,1.431,1.020,0.443,0.785,0.745,�k��,10.8,��
2018/12/12,17:00,0.758,1.129,0.801,1.432,1.017,0.444,0.786,0.748,�k��,10.0,��
2018/12/12,17:10,0.758,1.131,0.800,1.432,1.018,0.443,0.786,0.749,�k��,12.8,��
2018/12/12,17:20,0.759,1.131,0.802,1.432,1.020,0.444,0.787,0.746,���k��,11.6,��
2018/12/12,17:30,0.760,1.133,0.802,1.434,1.018,0.443,0.789,0.745,���k��,11.4,��
2018/12/12,17:40,0.758,1.128,0.800,1.434,1.016,0.444,0.787,0.749,�k��,10.7,��
2018/12/12,17:50,0.758,1.132,0.800,1.433,1.018,0.446,0.789,0.746,���k��,9.1,��
2018/12/12,18:00,0.760,1.130,0.800,1.437,1.018,0.443,0.788,0.750,�k��,10.2,��
2018/12/12,18:10,0.760,1.131,0.800,1.436,1.020,0.444,0.787,0.749,�k��,9.7,��
2018/12/12,18:20,0.760,1.134,0.802,1.434,1.020,0.445,0.788,0.746,�k��,10.5,��
2018/12/12,18:30,0.759,1.131,0.803,1.436,1.020,0.444,0.791,0.749,�k��,9.8,��
2018/12/12,18:40,0.757,1.130,0.802,1.437,1.018,0.445,0.789,0.748,�k��,8.8,��
2018/12/12,18:50,0.760,1.133,0.802,1.436,1.017,0.445,0.789,0.748,�k��,7.9,��
2018/12/12,19:00,0.760,1.131,0.803,1.442,1.019,0.446,0.789,0.747,�k��,8.8,��
2018/12/12,19:10,0.761,1.132,0.802,1.441,1.019,0.445,0.788,0.747,�k��,8.3,��
2018/12/12,19:20,0.758,1.134,0.802,1.439,1.020,0.446,0.789,0.747,�k��,8.6,��
2018/12/12,19:30,0.759,1.132,0.803,1.440,1.021,0.447,0.787,0.747,�k��,9.1,��
2018/12/12,19:40,0.758,1.132,0.801,1.438,1.019,0.445,0.788,0.748,�k��,8.4,��
2018/12/12,19:50,0.757,1.132,0.804,1.435,1.018,0.444,0.790,0.749,�k�k��,9.0,��
2018/12/12,20:00,0.759,1.133,0.804,1.439,1.020,0.446,0.788,0.748,�k�k��,10.2,��
2018/12/12,20:10,0.759,1.134,0.802,1.439,1.020,0.446,0.788,0.748,�k�k��,7.3,��
2018/12/12,20:20,0.756,1.133,0.801,1.438,1.018,0.445,0.788,0.748,�k�k��,9.0,��
2018/12/12,20:30,0.758,1.132,0.803,1.438,1.019,0.446,0.789,0.747,�k��,9.6,��
2018/12/12,20:40,0.758,1.133,0.803,1.439,1.021,0.443,0.789,0.747,�k�k��,6.5,��
2018/12/12,20:50,0.758,1.135,0.802,1.437,1.021,0.445,0.789,0.748,�k�k��,5.3,��
2018/12/12,21:00,0.757,1.132,0.803,1.438,1.021,0.444,0.788,0.749,�k��,4.7,��
2018/12/12,21:10,0.758,1.133,0.801,1.442,1.020,0.446,0.789,0.748,�k��,5.4,��
2018/12/12,21:20,0.759,1.133,0.802,1.438,1.019,0.443,0.787,0.749,�k��,8.1,��
2018/12/12,21:30,0.761,1.135,0.800,1.438,1.020,0.443,0.789,0.750,�k��,6.2,��
2018/12/12,21:40,0.759,1.131,0.801,1.437,1.020,0.445,0.788,0.748,�k��,4.8,��
2018/12/12,21:50,0.761,1.135,0.802,1.440,1.020,0.443,0.789,0.749,�k��,6.3,��
2018/12/12,22:00,0.758,1.131,0.801,1.439,1.018,0.446,0.787,0.748,�k��,5.8,��
2018/12/12,22:10,0.759,1.133,0.802,1.437,1.021,0.445,0.788,0.748,�k��,6.1,��
2018/12/12,22:20,0.759,1.136,0.802,1.440,1.021,0.444,0.788,0.747,�k��,7.2,��
2018/12/12,22:30,0.758,1.136,0.802,1.439,1.020,0.445,0.787,0.748,�k��,7.4,��
2018/12/12,22:40,0.757,1.135,0.803,1.438,1.021,0.442,0.789,0.748,�k��,6.8,��
2018/12/12,22:50,0.758,1.132,0.802,1.441,1.021,0.445,0.789,0.747,���k��,8.1,��
2018/12/12,23:00,0.759,1.134,0.801,1.440,1.021,0.443,0.788,0.747,���k��,6.9,��
2018/12/12,23:10,0.759,1.135,0.802,1.439,1.020,0.444,0.789,0.749,���k��,6.8,�L
2018/12/12,23:20,0.758,1.133,0.801,1.440,1.020,0.443,0.789,0.747,�k��,7.8,�L
2018/12/12,23:30,0.759,1.133,0.803,1.442,1.020,0.444,0.790,0.746,���k��,5.3,�L
2018/12/12,23:40,0.760,1.135,0.803,1.442,1.023,0.444,0.787,0.750,�k��,5.9,�L
2018/12/12,23:50,0.759,1.134,0.803,1.440,1.022,0.445,0.790,0.748,�k��,4.8,��
